Location: Recife
(8.0585°S, 34.8848°W)
Time: 10:02:23
(UTC-03:00)

Transit 2A Rocket - Pass Details

Date: 21 April 2026
Orbit: 587 x 895 km, 66.7° (Epoch: 14 May)

Event Time Altitude Azimuth Distance (km) Brightness Sun altitude
Rises 09:49:52 0° 12° (NNE) 2,812 8.3 60.3°
Reaches altitude 10° 09:52:52 10° 34° (NE) 1,903 7.7 60.8°
Maximum altitude 09:55:26 16° 72° (ENE) 1,570 7.3 61.3°
Drops below altitude 10° 09:58:00 10° 109° (ESE) 1,917 7.4 61.7°
Sets 10:01:02 0° 131° (SE) 2,846 8.0 62.3°
